Regional Weather Roundup
Issued by NWS

Home | Current Version | Previous Version | Graphics & Text | Print | Product List | Glossary On
Versions: 1 2 3 4 5 6 7 8 9 10 11 12 13 14 15 16 17 18 19 20 21 22 23 24 25 26 27 28 29 30 31 32 33 34 35 36 37 38 39 40 41 42 43 44 45 46 47 48 49 50
000
ASUS45 KBOU 261507
RWRCO

WEATHER ROUNDUP FOR COLORADO
NATIONAL WEATHER SERVICE DENVER/BOULDER CO
900 AM MDT FRI MAY 26 2017

NOTE: "FAIR" INDICATES FEW OR NO CLOUDS BELOW 12000 FEET WITH NO
SIGNIFICANT WEATHER AND/OR OBSTRUCTIONS TO VISIBILITY.

COZ001>005-013-030-031-261600-
...NORTHWEST COLORADO...

CITY           SKY/WX    TMP DP  RH WIND       PRES   REMARKS
CRAIG          FAIR      54  41  61 E14       29.89F
HAYDEN         FAIR      50  37  62 E13       29.91F
MEEKER         FAIR      60  38  43 NE3       29.88F
RABBIT EARS PA CLOUDY    36  34  93 S5        30.09S
STEAMBOAT SPGS FAIR      44  40  84 CALM      29.93F
WALDEN           N/A     43  37  81 CALM      30.02S
$$

COZ006>008-011-261600-
...WEST CENTRAL VALLEYS...

CITY           SKY/WX    TMP DP  RH WIND       PRES   REMARKS
GRAND JUNCTION FAIR      66  42  41 SE22G30   29.84F
MONTROSE       FAIR      56  40  55 SE3       29.95S
EAGLE          SUNNY     52  39  62 W5        29.98F
RIFLE          FAIR      62  39  42 NE5       29.88F
DELTA          FAIR      63  43  48 E7        29.93S
NUCLA          FAIR      63  19  19 S9G23     29.98R
$$

COZ017>023-064>068-261600-
...SOUTHWEST COLORADO...

CITY           SKY/WX    TMP DP  RH WIND       PRES   REMARKS
DURANGO        FAIR      55  30  38 NE9       30.05R
CORTEZ         FAIR      66  23  19 SW10      29.98S
PAGOSA SPRINGS FAIR      57  16  19 S5        30.11S
TELLURIDE      FAIR      52  19  28 S5        30.14S
WOLF CREEK PAS FAIR      34  14  44 S23G29    30.29F WCI  22
$$

COZ009-010-012-014-032>034-037-058>063-261600-
...CENTRAL COLORADO...

CITY           SKY/WX    TMP DP  RH WIND       PRES   REMARKS
ASPEN          FAIR      55  36  48 SE14      29.99S
BUENA VISTA    FAIR      51  37  59 CALM      30.07S
COPPER MTN     FAIR      37  27  65 S15       30.20S
BERTHOUD PASS  FAIR      32  21  64 MISG      30.18F
COTTONWOOD PAS FAIR      46  37  71 E8        30.14S
GUNNISON       FAIR      48  39  71 N6        30.08S
KREMMLING      FAIR      45  39  81 CALM      30.02S
LEADVILLE      FAIR      40  34  79 S6        30.11F
MONARCH PASS   FAIR      36  30  80 S15       30.33S
SALIDA         FAIR      54  37  52 CALM      30.13F
SUNLIGHT       FAIR      37  32  81 S12G23    30.15S
WILKERSON PASS FAIR      39  30  70 SW7       30.22S
$$

COZ069>075-261600-
...SAN LUIS VALLEY/SANGRE DE CRISTO MOUNTAINS...

CITY           SKY/WX    TMP DP  RH WIND       PRES   REMARKS
ALAMOSA        FAIR      55  35  47 SE9       30.07F
DEL NORTE      FAIR      53  35  49 E8        30.09S
LA VETA PASS   FAIR      45  21  39 SW12      30.29S
SAGUACHE       FAIR      52  36  54 SE10      30.09S
$$

COZ035-036-038>040-261600-
...NORTHERN COLORADO FRONT RANGE...

CITY           SKY/WX    TMP DP  RH WIND       PRES   REMARKS
DENVER INTL AP PTSUNNY   52  42  69 E8        29.99F
DMNS CITY PARK   N/A     53  44  71 NE3G15    29.98S
AURORA         PTSUNNY   50  47  89 E7        30.00F
FRONT RANGE AP PTSUNNY   54  45  71 NE7       30.00F
ERIE MUNI ARPT CLOUDY    50  41  71 CALM      29.99F
BOULDER MUN AP CLOUDY    50  43  76 NE5       29.98F
CENTENNIAL     PTSUNNY   52  45  77 CALM      29.99F
BROOMFIELD     PTSUNNY   50  46  87 NW5       30.00F
FORT COLLINS   CLOUDY    50  38  63 SE6       30.00F
LONGMONT       CLOUDY    54  40  59 CALM      30.00F
$$

COZ041-046-047-076>085-087-088-261600-
...PIKES PEAK/PALMER DIVIDE AND SOUTHERN FOOTHILLS...

CITY           SKY/WX    TMP DP  RH WIND       PRES   REMARKS
COLO. SPRINGS  FAIR      55  47  74 VRB7      30.02S
A. F. ACADEMY  FAIR      54  44  70 S6        30.02S
SCHRIEVER AFB  FAIR      55  45  70 S14G20    30.02F
CHEYENNE MTN   FAIR      53  48  84 S13G20    29.98F
ELLICOTT       FAIR     N/A N/A N/A VRB5      30.01S
FALCON         FAIR      54  45  72 S13       30.06S
FORT CARSON    FAIR      58  47  67 S15       30.00S
LIMON          FAIR      54  47  77 N6        30.00F
MONUMENT HILL  FAIR      52  43  71 S7        30.04F
CANON CITY     NOT AVBL
WALSENBURG     FAIR      61  48  63 SE7       30.01F
TRINIDAD       FAIR      57  43  59 MISG      30.02F
$$

COZ042>045-048>051-090-091-261600-
...NORTHEAST COLORADO...

CITY           SKY/WX    TMP DP  RH WIND       PRES   REMARKS
GREELEY ARPT   FAIR      52  40  63 E7        29.99F
AKRON          FAIR      53  41  63 NE9       29.99S
BURLINGTON     FAIR      57  50  77 N14       29.97R
WRAY           FAIR      55  41  58 N10       29.98R
YUMA           FAIR      54  41  62 N12       29.98R
STERLING       FAIR      54  41  62 NE6       29.97S
HOLYOKE        NOT AVBL
FORT MORGAN    FAIR      54  38  56 CALM      30.00S
$$

COZ086-089-092>099-261600-
...SOUTHEAST COLORADO...

CITY           SKY/WX    TMP DP  RH WIND       PRES   REMARKS
PUEBLO         FAIR      60  45  57 CALM      29.98S
LA JUNTA       FAIR      63  47  55 W6        29.97R
LAMAR          FAIR      65  49  56 W9        29.93R
SPRINGFIELD      N/A     66  46  48 N10       29.96R
$$



USA.gov is the U.S. government's official web portal to all federal, state and local government web resources and services.